Theta_e
322 322 322 323 324 323 323 325 328 330 333 345 346 345 344 340 337 337 338 338 338 336 334 332 331 329 329 330 330 329 327 326 327 325 325 325 327 327 326 326 325 327 322
322 323 323 323 323 323 324 326 332 330 342 345 346 344 340 338 338 339 339 338 334 332 331 330 330 329 328 327 326 325 326 326 327 325 326 326 327 327 328 328 328 327 317
322 324 323 322 323 325 330 334 333 340 343 345 343 339 339 339 339 335 333 330 331 329 329 330 330 329 329 327 324 324 326 327 326 326 326 326 327 328 325 325 326 325 319
325 325 325 325 328 332 334 333 332 337 345 340 339 340 340 337 333 330 330 329 328 328 329 329 330 330 329 328 324 324 326 327 326 326 326 326 325 326 326 326 325 320 321
329 326 329 331 333 333 335 338 341 344 340 340 341 340 333 331 329 328 328 330 329 329 329 330 330 330 329 328 324 325 326 327 326 326 326 328 326 326 327 326 321 322 323
337 336 330 332 335 341 340 342 342 341 341 340 332 331 330 328 329 328 329 330 330 327 326 329 330 329 329 327 326 327 326 326 326 327 327 327 327 326 326 323 320 321 324
336 336 337 337 341 343 343 342 340 340 333 332 330 329 327 330 328 328 328 329 326 327 327 328 328 327 327 325 324 327 327 326 326 326 326 326 325 325 326 321 320 321 324
335 335 336 339 341 342 342 341 336 334 334 332 328 328 328 327 328 328 328 326 326 326 327 327 326 326 326 327 327 326 326 326 326 327 326 326 325 325 325 324 321 323 323
335 336 338 340 341 342 340 336 334 333 331 328 329 328 327 327 328 328 326 326 325 326 326 325 327 327 326 326 326 326 326 326 327 328 328 327 325 324 324 324 322 322 322
335 336 337 340 338 336 335 333 329 325 328 331 327 327 327 328 326 326 327 325 325 326 325 327 327 326 325 326 326 326 326 327 327 327 327 326 325 325 324 324 323 322 323
336 337 338 336 334 332 329 327 326 331 331 328 327 328 329 326 325 327 328 326 325 325 327 327 326 326 326 326 327 327 326 326 325 325 324 324 323 322 323 323 324 323 321
337 336 333 330 330 327 327 328 330 329 328 328 329 328 327 326 328 328 326 326 326 325 325 326 326 325 325 326 326 325 325 323 322 322 321 321 321 322 322 324 324 323 324
334 333 331 329 326 327 328 329 328 328 328 329 328 328 326 327 326 326 325 325 325 326 326 325 324 325 325 325 325 325 324 323 322 321 322 324 322 321 322 323 324 324 324
330 328 327 328 329 329 329 328 328 328 328 328 328 327 324 325 324 324 324 325 324 324 325 325 324 325 325 324 325 324 323 323 322 322 322 323 322 323 323 324 323 323 323
329 329 329 329 329 329 328 327 326 327 328 329 329 328 326 323 324 324 323 323 323 323 325 325 326 324 325 325 324 323 322 323 322 323 323 323 322 324 323 324 323 323 323
329 329 328 328 328 327 327 326 328 328 329 328 329 328 326 325 324 323 323 323 323 324 325 324 325 323 324 325 324 322 323 323 322 323 323 323 323 324 324 323 323 323 323
327 327 327 327 327 327 327 327 328 329 329 330 329 328 326 325 323 323 323 324 324 324 325 325 324 323 322 321 321 321 321 321 321 321 322 323 322 322 323 324 324 324 324
327 327 327 327 327 327 327 328 328 329 330 330 329 327 324 322 321 323 323 323 323 324 323 323 322 321 321 321 321 320 320 320 320 321 322 322 322 321 322 323 324 324 323
328 329 329 328 328 328 329 329 330 329 330 329 326 324 322 322 323 324 324 324 324 323 324 323 322 321 321 322 322 322 323 322 322 323 323 323 323 324 323 323 323 322 322
327 328 329 329 329 329 329 330 329 329 328 325 324 323 322 323 323 323 323 324 324 324 323 321 321 322 323 323 323 322 322 322 322 323 323 323 324 323 322 322 322 323 322
328 329 328 327 328 329 329 329 329 329 327 325 324 322 323 323 324 325 325 323 324 323 322 322 322 324 325 325 325 324 323 323 323 323 323 323 323 322 322 322 323 323 324
329 329 329 329 328 327 328 329 329 328 326 324 323 322 323 324 324 325 324 324 323 323 323 323 323 323 324 325 325 325 325 325 324 325 325 325 324 324 324 323 323 324 324
330 328 328 329 329 329 327 328 328 327 324 323 322 322 323 324 324 326 326 325 325 323 323 324 325 325 326 326 326 326 326 326 326 326 326 326 326 326 326 326 326 326 327
330 329 328 329 330 329 328 326 327 325 322 322 322 323 323 324 324 326 326 325 325 325 325 325 325 326 326 326 326 326 326 326 327 326 326 327 326 326 327 326 325 326 326
329 329 329 329 329 328 327 326 326 325 323 322 322 323 323 324 324 326 326 327 327 326 326 326 326 326 326 326 327 327 327 326 326 326 326 326 326 326 326 326 325 325 324
329 329 329 328 329 329 328 326 325 324 325 323 323 323 323 323 324 325 326 326 326 325 326 326 325 323 323 323 323 324 324 324 324 324 324 323 323 323 322 320 316 313 312
Wind_Speed
29 31 37 46 45 41 38 34 32 28 23 22 23 21 18 18 18 18 17 17 17 15 14 15 14 13 13 14 16 15 13 11 9 9 8 5 9 9 9 14 18 14 14
27 32 32 38 41 38 31 30 28 24 23 22 21 21 20 20 20 18 17 14 13 14 15 15 14 14 13 13 13 13 12 11 9 8 10 8 11 13 12 13 15 13 13
24 28 31 38 34 30 27 26 25 23 23 23 22 20 21 22 18 13 10 9 12 11 12 13 14 15 15 15 13 13 11 12 12 10 11 12 13 17 17 14 11 13 14
24 24 30 29 27 26 26 25 23 24 25 23 22 22 22 21 15 10 11 9 8 10 12 14 16 18 17 16 14 12 13 14 13 12 11 13 15 16 15 15 15 15 15
23 28 28 27 26 26 25 23 24 25 25 25 24 24 18 14 11 13 10 9 8 9 11 14 17 18 17 15 16 15 16 16 15 17 15 16 18 16 17 18 18 17 17
27 36 32 29 26 26 27 28 29 29 28 27 22 19 17 15 14 11 12 11 11 13 13 14 15 16 15 15 16 15 15 15 16 20 20 20 21 20 17 19 21 20 18
26 24 21 24 28 29 30 32 30 32 30 24 22 17 16 16 12 13 12 12 13 11 10 10 12 14 15 15 16 14 14 11 9 16 19 21 21 20 19 21 21 22 21
22 24 27 29 30 32 33 34 34 30 27 24 20 19 16 14 14 13 11 10 8 8 7 8 11 11 12 13 16 17 15 12 10 11 14 13 16 17 16 17 22 20 18
17 30 32 33 36 40 35 32 31 28 22 21 21 17 15 14 12 10 8 8 7 8 9 12 9 10 12 13 15 16 16 14 14 12 13 12 12 15 18 19 22 24 20
28 34 35 38 33 35 35 30 25 25 23 24 18 16 14 11 10 9 9 9 8 10 12 12 11 11 11 11 12 15 17 17 17 17 16 15 15 15 17 18 20 23 23
36 39 37 36 36 32 29 25 25 26 27 22 18 14 11 10 11 10 9 9 7 10 12 13 12 12 11 10 7 11 13 14 14 15 17 16 17 16 17 17 19 21 21
41 39 37 35 30 26 28 28 26 26 22 19 16 14 12 11 11 12 10 8 9 10 13 12 9 14 14 11 10 10 8 5 10 16 17 17 20 19 19 17 16 17 18
39 36 34 29 26 29 31 27 26 22 21 19 16 14 14 13 13 11 10 10 10 11 10 12 11 15 15 12 10 8 7 6 10 15 16 17 18 18 17 16 15 16 14
34 30 30 28 28 28 26 25 22 21 20 18 17 14 12 14 13 12 11 12 12 13 13 15 14 16 15 12 12 9 8 6 8 13 14 15 15 15 16 14 13 14 13
32 31 31 28 29 28 26 22 19 16 16 16 13 9 8 13 13 12 12 14 12 13 15 15 18 17 16 14 12 10 9 9 6 12 14 16 16 15 16 14 11 14 14
31 31 29 29 29 26 24 22 20 15 14 10 7 6 7 8 11 13 14 14 12 14 16 20 20 17 15 13 12 10 9 9 8 10 13 16 15 14 15 12 12 11 12
31 31 31 32 30 28 25 24 21 19 17 14 11 9 6 11 11 13 15 12 13 17 18 17 16 15 11 9 10 9 10 10 9 11 14 17 15 15 13 13 11 13 13
28 29 29 28 27 25 23 21 21 21 19 18 15 13 10 10 11 13 16 17 17 17 17 18 16 12 9 9 8 9 10 10 11 13 14 17 17 13 15 14 13 12 12
27 28 25 24 21 20 20 22 22 21 22 20 20 17 14 13 16 18 16 16 17 15 16 15 15 12 9 7 7 7 9 9 10 12 12 13 15 15 12 11 11 11 11
21 20 19 19 19 18 18 23 23 24 23 20 21 19 19 19 21 16 13 13 13 15 18 16 15 11 10 10 9 9 10 10 10 9 10 10 11 11 11 11 10 9 10
23 20 19 20 18 19 21 22 24 25 23 21 20 18 21 23 21 15 10 14 14 16 17 16 12 11 10 8 8 7 7 7 6 6 6 6 8 9 9 9 9 9 10
23 19 20 20 19 19 21 23 25 25 22 23 22 23 23 22 16 12 13 14 15 16 17 15 12 11 8 8 8 9 8 6 4 4 4 4 5 6 7 9 11 13 16
21 18 18 19 19 19 20 21 21 23 25 25 26 26 23 20 13 13 13 13 14 15 16 14 12 10 7 6 8 6 6 4 4 3 4 6 7 8 10 12 14 16 20
20 19 19 19 21 21 20 21 21 25 27 27 26 25 21 16 11 13 12 13 13 12 12 12 10 8 6 6 4 5 6 5 5 6 8 7 10 11 12 13 14 13 11
24 22 21 20 24 24 25 25 26 27 28 26 25 25 23 19 15 17 16 14 13 13 12 10 7 6 5 5 5 4 4 4 3 2 2 1 1 4 5 6 6 7 6
23 22 25 25 24 27 27 30 31 30 30 27 26 24 21 18 16 15 13 13 14 16 17 15 14 11 9 9 9 7 5 4 4 1 2 2 3 3 4 5 5 3 2
Wind_Direction
248 249 244 240 241 248 251 248 243 239 230 222 224 227 230 214 219 207 219 211 214 220 225 232 239 237 238 237 241 244 244 249 255 257 237 225 194 187 156 168 180 189 188
250 244 244 241 243 243 240 238 228 227 217 218 221 223 214 210 207 204 203 204 214 225 232 233 229 230 234 235 238 239 239 240 241 235 218 209 193 196 201 176 169 181 183
244 238 238 235 233 230 221 212 215 210 213 209 214 202 188 189 190 184 207 237 228 231 230 228 231 235 237 231 227 232 235 222 215 226 213 195 190 180 169 170 171 179 176
233 230 221 218 211 203 201 206 211 206 204 197 182 178 184 172 175 192 209 214 226 229 231 236 239 241 237 234 216 233 220 211 205 214 212 190 187 190 200 191 179 175 170
227 217 203 196 195 200 202 196 193 192 182 172 173 169 166 167 183 194 205 226 240 244 245 242 238 233 228 229 224 228 211 210 212 203 196 185 178 177 185 181 173 168 166
204 192 192 189 200 196 181 186 174 170 166 163 162 164 166 180 196 205 224 242 259 266 257 244 229 225 220 219 218 212 209 213 206 197 190 185 182 186 187 184 177 171 161
194 198 195 195 187 183 179 169 170 165 161 159 164 173 185 184 200 216 237 253 262 252 242 216 209 218 221 204 202 205 200 215 241 209 196 197 190 187 190 178 179 171 171
194 209 211 187 172 174 172 166 161 161 162 162 173 180 178 194 211 222 241 249 234 227 203 186 180 185 192 196 196 190 186 194 202 209 214 217 212 203 196 194 180 168 171
199 210 201 179 165 160 160 161 160 160 171 177 177 180 195 205 217 229 224 209 197 181 169 167 172 177 174 174 186 188 186 185 182 198 215 214 214 212 203 191 184 175 179
208 203 181 159 160 156 156 159 167 167 171 171 177 187 200 209 210 198 187 184 168 162 166 167 163 165 167 171 186 195 190 184 188 192 192 195 204 208 202 200 193 190 182
189 183 158 155 153 154 156 161 172 172 170 174 186 189 199 201 194 187 166 175 176 175 174 173 170 171 168 154 169 188 190 192 202 209 188 181 180 183 181 186 197 203 201
169 149 149 152 156 161 164 167 165 171 176 179 188 189 188 186 181 174 168 184 192 197 192 192 187 174 161 153 156 170 184 192 184 168 173 176 176 178 182 187 192 202 212
143 147 155 159 157 166 167 167 170 178 182 186 188 190 186 174 178 182 184 189 182 179 183 190 187 162 167 162 169 174 183 187 189 181 181 178 176 176 179 181 193 204 212
147 151 156 158 161 164 171 172 177 183 188 189 186 188 186 176 177 179 181 177 174 170 172 173 173 165 168 174 172 166 186 180 179 183 187 183 177 177 178 187 191 191 197
150 157 160 163 167 163 170 174 181 187 189 188 195 199 188 178 177 179 180 170 173 174 170 162 164 168 170 177 175 175 182 182 178 188 189 183 183 187 189 188 194 190 191
157 160 159 161 165 169 179 181 184 186 180 183 188 171 151 168 172 170 171 176 176 172 168 162 166 165 169 169 175 182 184 187 184 185 185 185 184 189 193 186 195 201 197
156 159 165 171 175 177 182 184 183 183 182 182 171 166 164 164 161 169 170 172 167 166 170 161 153 155 161 176 186 198 198 194 193 189 194 195 197 199 207 205 212 205 204
158 162 170 175 177 180 184 188 187 181 177 163 161 142 152 154 143 153 152 156 163 164 165 163 156 157 159 161 177 191 194 202 196 191 195 194 199 203 207 211 210 206 209
161 168 172 174 177 184 190 190 183 172 160 154 146 147 149 139 134 136 139 148 154 159 156 154 150 151 157 172 176 179 191 186 180 181 186 194 204 211 216 210 206 205 207
157 162 168 169 171 171 172 170 171 163 156 154 152 156 152 142 135 137 142 151 149 153 150 147 150 146 134 128 134 138 137 144 162 176 187 193 190 193 186 188 198 216 230
154 152 151 155 161 163 163 165 163 161 155 158 155 151 144 139 127 109 127 128 140 145 154 161 157 153 146 135 136 136 137 134 135 133 136 149 169 189 206 226 235 242 256
155 156 156 159 158 158 161 163 163 163 157 155 144 147 143 137 133 109 129 136 141 150 162 169 171 171 166 161 160 152 143 147 156 169 182 203 225 246 246 244 250 264 276
166 154 156 161 155 151 154 160 163 159 154 152 153 153 154 156 141 136 135 135 143 145 151 154 160 157 154 157 158 154 159 168 187 230 244 256 252 235 239 250 257 265 274
153 155 151 150 153 151 153 156 155 152 153 153 158 157 162 166 153 144 143 134 145 147 150 156 163 164 152 160 171 168 178 213 238 250 268 275 262 258 258 258 261 264 271
153 150 152 147 153 152 150 150 150 153 154 155 158 164 168 174 169 160 164 165 162 168 167 164 163 158 164 170 168 187 219 241 225 258 332 311 289 264 266 270 256 244 253
163 163 163 158 160 157 157 158 162 163 158 159 164 167 170 171 170 171 172 175 173 167 166 168 158 148 134 130 122 121 121 128 124 61 317 308 287 240 211 209 201 201 219